Hondo, TX

7:20 PM CDT on August 18, 2019 (GMT -0500)
Hondo Municipal

Weather History for KHDO - July, 2019

Change the Weather History Date:

Friday, July 19, 2019

  Actual Average Record
Temperature  
Mean Temperature 87 °F -  
Max Temperature 99 °F 93 °F 105 °F (2018)
Min Temperature 75 °F 70 °F 70 °F (2000)
Cooling Degree Days 22    
Growing Degree Days 37 (Base 50)    
Moisture  
Dew Point 70 °F    
Average Humidity 66    
Maximum Humidity 91    
Minimum Humidity 32    
Precipitation  
Precipitation 0.00 in - - ()
Sea Level Pressure  
Sea Level Pressure 29.92 in    
Wind  
Wind Speed 13 mph (SSE)    
Max Wind Speed 22 mph    
Max Gust Speed 29 mph    
Visibility 10 miles    
Events      
Averages and records for this station are not official NWS values.
T = Trace of Precipitation, MM = Missing Value Source: NWS Daily Summary

Daily Weather History Graph

Daily Weather History Graph

Search for Another Location

Airport or City:

Astronomy

Jul. 19, 2019 Rise Set
Actual Time 6:49 AM CDT 8:36 PM CDT
Civil Twilight 6:22 AM CDT 9:02 PM CDT
Nautical Twilight 5:51 AM CDT 9:34 PM CDT
Astronomical Twilight 5:17 AM CDT 10:08 PM CDT
Moon 10:44 PM CDT 9:10 AM CDT
Length of Visible Light 14h 39m
Length of Day
13h 47m
Waning Gibbous, 93% of the Moon is Illuminated
Jul 19
Waning Gibbous
Jul 24
Last Quarter
Jul 31
New
Aug 7
First Quarter
Aug 15
Full

Hourly Weather History & Observations

Time (CDT) Temp. Heat Index Dew Point Humidity Pressure Visibility Wind Dir Wind Speed Gust Speed Precip Events Conditions
12:51 AM 80.1 °F 82.7 °F 68.0 °F 67% 29.93 in 10.0 mi SE 12.7 mph - N/A   Clear
1:51 AM 78.1 °F - 69.1 °F 74% 29.93 in 10.0 mi SE 12.7 mph - N/A   Clear
2:51 AM 75.9 °F - 70.0 °F 82% 29.92 in 10.0 mi SE 9.2 mph - N/A   Clear
3:51 AM 75.0 °F - 71.1 °F 87% 29.92 in 10.0 mi SE 10.4 mph - N/A   Clear
4:16 AM 75.0 °F - 72.0 °F 90% 29.97 in 10.0 mi SSE 6.9 mph - N/A   Mostly Cloudy
4:51 AM 75.9 °F - 72.0 °F 87% 29.92 in 10.0 mi SE 9.2 mph - N/A   Overcast
4:59 AM 75.9 °F - 72.0 °F 87% 29.97 in 10.0 mi SE 10.4 mph - N/A   Overcast
5:27 AM 75.9 °F - 72.0 °F 87% 29.97 in 10.0 mi SSE 10.4 mph - N/A   Overcast
5:51 AM 75.9 °F - 72.0 °F 87% 29.92 in 10.0 mi SSE 12.7 mph 20.7 mph N/A   Overcast
6:51 AM 75.9 °F - 72.0 °F 87% 29.93 in 10.0 mi SE 6.9 mph - N/A   Overcast
7:51 AM 75.9 °F - 73.0 °F 91% 29.95 in 10.0 mi SSE 12.7 mph - N/A   Overcast
8:51 AM 79.0 °F - 72.0 °F 79% 29.96 in 10.0 mi SSE 12.7 mph - N/A   Mostly Cloudy
9:08 AM 80.1 °F 83.8 °F 72.0 °F 76% 30.01 in 10.0 mi SSE 13.8 mph - N/A   Scattered Clouds
9:16 AM 81.0 °F 85.2 °F 72.0 °F 74% 30.01 in 10.0 mi South 10.4 mph - N/A   Mostly Cloudy
9:34 AM 81.0 °F 84.9 °F 71.1 °F 72% 30.01 in 10.0 mi South 12.7 mph - N/A   Scattered Clouds
9:51 AM 82.0 °F 86.3 °F 71.1 °F 69% 29.96 in 10.0 mi South 13.8 mph - N/A   Partly Cloudy
10:51 AM 86.0 °F 90.7 °F 70.0 °F 59% 29.96 in 10.0 mi SE 10.4 mph - N/A   Partly Cloudy
11:51 AM 89.1 °F 95.0 °F 71.1 °F 55% 29.95 in 10.0 mi SSE 16.1 mph 21.9 mph N/A   Clear
12:51 PM 93.0 °F 99.0 °F 70.0 °F 47% 29.94 in 10.0 mi SSE 17.3 mph 23.0 mph N/A   Clear
1:51 PM 95.0 °F 99.5 °F 68.0 °F 41% 29.92 in 10.0 mi South 12.7 mph 26.5 mph N/A   Partly Cloudy
2:51 PM 97.0 °F 101.0 °F 66.9 °F 37% 29.89 in 10.0 mi SSE 15.0 mph 27.6 mph N/A   Clear
3:51 PM 98.1 °F 101.8 °F 66.0 °F 35% 29.87 in 10.0 mi SE 15.0 mph 28.8 mph N/A   Clear
4:51 PM 99.0 °F 101.7 °F 64.0 °F 32% 29.85 in 10.0 mi SSE 17.3 mph 27.6 mph N/A   Clear
5:51 PM 98.1 °F 101.2 °F 64.9 °F 34% 29.83 in 10.0 mi SE 18.4 mph - N/A   Clear
6:51 PM 97.0 °F 100.4 °F 66.0 °F 36% 29.83 in 10.0 mi SE 15.0 mph 25.3 mph N/A   Clear
7:51 PM 93.0 °F 97.4 °F 68.0 °F 44% 29.84 in 10.0 mi SE 20.7 mph 27.6 mph N/A   Clear
8:51 PM 89.1 °F 94.1 °F 70.0 °F 53% 29.85 in 10.0 mi SE 19.6 mph 26.5 mph N/A   Clear
9:51 PM 86.0 °F 92.2 °F 72.0 °F 63% 29.87 in 10.0 mi SE 18.4 mph 28.8 mph N/A   Clear
10:51 PM 82.9 °F 88.0 °F 72.0 °F 69% 29.90 in 10.0 mi SE 21.9 mph 28.8 mph N/A   Clear
11:51 PM 81.0 °F 84.9 °F 71.1 °F 72% 29.93 in 10.0 mi SE 15.0 mph - N/A   Clear